Starlink 32267

operational
NORAD ID: 60363 Int'l Des: 2024-138 Owner: SPXS Country: US Constellation: starlink
LEOCIRCULAR

About Starlink 32267

Description loading...

Live Position

Loading 3D Globe...

Upcoming Passes

Altitude History

Altitude vs Time

uPlot chart will show altitude changes over time

Two-Line Element Set

1 60363U 24138J 25308.67007113 -.00001452 00000-0 -36915-4 0 9991
2 60363 53.1589 170.5098 0001215 98.5046 261.6092 15.30182728 71485
Epoch: Nov 4, 2025 • Age: 11 hours

Current Status

Altitude 475.5 km
Velocity 7.63 km/s
Sub-Earth Point 19.09°N, 91.31°E
Launch Date Aug 4, 2024
Age 1.2 years
Type internet

Technical Details

Classification Payload
Mass 730.00 kg
Dry Mass 700.00 kg
Total Mass 730.00 kg
Length 0.30 m
Diameter 4.10 m
Span 29.00 m
Shape Box + pan
Manufacturer SPXS
Bus Type Starlink V2M
Phase Status In Orbit
Owner/State SPXS/US

Large Constellations

Loading constellations...